FW0574 Weather Reports


time (UTC)temp
C
wind
direction
speed
KPH
gust
KPH
rain 1hr
cm
rain 24hr
cm
rain mn
cm
humidity
%
barometer
mb
20260507052407 14 270 0.0 3.2 0.00 0.00 0.00 91 1014.2
20260507051359 14 315 3.2 4.8 0.00 0.00 0.00 91 1014.2
20260507050854 14 270 3.2 4.8 0.00 0.00 0.00 91 1014.2
20260507050357 14 270 3.2 4.8 0.00 0.00 0.00 91 1014.2
20260507045852 14 270 1.6 3.2 0.00 0.00 0.00 91 1014.5
20260507045351 14 270 3.2 4.8 0.00 0.00 0.00 91 1014.5
20260507043344 15 270 0.0 4.8 0.00 0.00 0.00 88 1014.2
20260507042841 15 270 1.6 4.8 0.00 0.00 0.00 88 1014.2
20260507042343 15 293 1.6 6.4 0.00 0.00 0.00 88 1014.2
20260507041839 15 293 3.2 8.0 0.00 0.00 0.00 88 1014.2
20260507041338 15 293 4.8 8.0 0.00 0.00 0.00 88 1013.9
20260507040833 15 270 3.2 6.4 0.00 0.00 0.00 88 1013.9
20260507040331 15 270 3.2 6.4 0.00 0.00 0.00 88 1013.9
20260507035333 15 293 3.2 8.0 0.00 0.00 0.00 86 1013.9
20260507034832 15 270 4.8 8.0 0.00 0.00 0.00 86 1013.9
20260507033834 16 270 6.4 9.7 0.00 0.00 0.00 85 1013.5
20260507033333 16 270 4.8 9.7 0.00 0.00 0.00 85 1013.5
20260507032833 16 270 3.2 6.4 0.00 0.00 0.00 83 1013.5
20260507032331 16 270 1.6 8.0 0.00 0.00 0.00 81 1013.5
20260507031826 16 293 3.2 8.0 0.00 0.00 0.00 81 1013.2
20260507031321 16 293 4.8 6.4 0.00 0.00 0.00 81 1013.2
20260507030820 17 270 3.2 8.0 0.00 0.00 0.00 80 1012.8
20260507030314 17 270 4.8 9.7 0.00 0.00 0.00 80 1013.2
20260507025813 17 270 4.8 9.7 0.00 0.00 0.00 79 1012.8
20260507024812 18 270 3.2 8.0 0.00 0.00 0.00 75 1012.8
20260507024310 18 225 3.2 6.4 0.00 0.00 0.00 74 1012.8
20260507023809 19 248 1.6 6.4 0.00 0.00 0.00 73 1012.8
20260507023308 19 315 1.6 9.7 0.00 0.00 0.00 71 1012.5
20260507022811 19 45 4.8 9.7 0.00 0.00 0.00 71 1012.5
20260507022301 20 270 3.2 8.0 0.00 0.00 0.00 70 1012.8
20260507021300 20 338 4.8 11.3 0.00 0.00 0.00 65 1012.5
20260507020755 21 225 6.4 9.7 0.00 0.00 0.00 65 1012.5
20260507020255 21 270 3.2 9.7 0.00 0.00 0.00 61 1012.5
20260507015755 22 293 3.2 9.7 0.00 0.00 0.00 61 1012.2
20260507015256 22 203 4.8 9.7 0.00 0.00 0.00 61 1012.2
20260507014257 22 293 6.4 12.9 0.00 0.00 0.00 59 1012.5
20260507013754 22 270 6.4 12.9 0.00 0.00 0.00 58 1012.2
20260507013254 22 270 4.8 11.3 0.00 0.00 0.00 58 1012.2
20260507012754 22 338 4.8 11.3 0.00 0.00 0.00 58 1012.2
20260507012251 22 270 6.4 12.9 0.00 0.00 0.00 58 1012.2
20260507011753 22 225 8.0 12.9 0.00 0.00 0.00 58 1012.2
20260507010744 23 293 6.4 12.9 0.00 0.00 0.00 56 1012.5
20260507010239 23 315 9.7 12.9 0.00 0.00 0.00 55 1012.2
20260507005740 23 270 6.4 12.9 0.00 0.00 0.00 55 1012.2
20260507005239 23 315 9.7 16.1 0.00 0.00 0.00 55 1012.2
20260507004736 23 270 9.7 16.1 0.00 0.00 0.00 54 1012.5
20260507004238 25 248 4.8 9.7 0.00 0.00 0.00 54 1012.2
20260507003736 24 270 4.8 12.9 0.00 0.00 0.00 54 1012.2
20260507003237 24 270 9.7 12.9 0.00 0.00 0.00 54 1012.2
20260507002735 25 270 4.8 12.9 0.00 0.00 0.00 53 1012.2
20260507001736 25 270 8.0 12.9 0.00 0.00 0.00 50 1012.2
20260507001235 26 315 6.4 11.3 0.00 0.00 0.00 50 1012.2
20260507000733 26 270 4.8 11.3 0.00 0.00 0.00 49 1012.2
20260507000234 26 225 3.2 6.4 0.00 0.00 0.00 48 1011.8
20260506235735 26 270 3.2 9.7 0.00 0.00 0.00 48 1012.2
20260506235233 26 270 6.4 9.7 0.00 0.00 0.00 49 1012.2
20260506234734 27 270 3.2 11.3 0.00 0.00 0.00 48 1012.2
20260506233734 26 270 3.2 12.9 0.00 0.00 0.00 49 1012.2
20260506232736 26 270 6.4 9.7 0.00 0.00 0.00 48 1012.2
20260506231732 27 135 4.8 14.5 0.00 0.00 0.00 49 1012.5
20260506231235 27 180 6.4 14.5 0.00 0.00 0.00 48 1012.5
20260506230734 27 203 6.4 16.1 0.00 0.00 0.00 48 1012.5
20260506230235 27 203 6.4 16.1 0.00 0.00 0.00 46 1012.2
20260506225734 27 270 4.8 11.3 0.00 0.00 0.00 46 1012.5
20260506225235 27 225 6.4 14.5 0.00 0.00 0.00 46 1012.5
20260506224224 27 248 6.4 11.3 0.00 0.00 0.00 46 1012.5
20260506223724 27 270 4.8 12.9 0.00 0.00 0.00 46 1012.8
20260506223221 26 293 9.7 12.9 0.00 0.00 0.00 46 1012.8
20260506222722 28 270 6.4 11.3 0.00 0.00 0.00 43 1012.8
20260506222213 28 293 4.8 8.0 0.00 0.00 0.00 43 1012.8
20260506220705 29 270 4.8 6.4 0.00 0.00 0.00 40 1013.2
20260506220201 30 270 3.2 8.0 0.00 0.00 0.00 40 1013.2
20260506215201 29 225 3.2 6.4 0.00 0.00 0.00 41 1013.2
20260506214659 29 248 3.2 8.0 0.00 0.00 0.00 43 1013.2
20260506213654 30 248 3.2 8.0 0.00 0.00 0.00 40 1013.5
20260506213156 30 315 3.2 8.0 0.00 0.00 0.00 40 1013.5
20260506212154 30 203 1.6 3.2 0.00 0.00 0.00 40 1013.5
20260506211657 29 293 1.6 9.7 0.00 0.00 0.00 41 1013.9
20260506211156 29 270 3.2 9.7 0.00 0.00 0.00 43 1013.9
20260506210657 29 270 3.2 6.4 0.00 0.00 0.00 41 1013.9
20260506210155 28 270 1.6 6.4 0.00 0.00 0.00 44 1013.9
20260506205653 27 315 3.2 9.7 0.00 0.00 0.00 45 1013.9
20260506205152 28 270 4.8 11.3 0.00 0.00 0.00 44 1014.2
20260506204146 26 270 6.4 9.7 0.00 0.00 0.00 45 1014.2
20260506203637 28 315 3.2 11.3 0.00 0.00 0.00 43 1014.2
20260506203137 28 293 4.8 11.3 0.00 0.00 0.00 43 1014.2
20260506202638 29 225 1.6 6.4 0.00 0.00 0.00 41 1014.2
20260506202137 28 270 1.6 9.7 0.00 0.00 0.00 45 1014.5
20260506201636 27 270 3.2 9.7 0.00 0.00 0.00 45 1014.2
20260506200635 27 293 4.8 9.7 0.00 0.00 0.00 46 1014.5
20260506200136 27 338 1.6 11.3 0.00 0.00 0.00 48 1014.5
20260506195633 25 270 6.4 11.3 0.00 0.00 0.00 49 1014.5
20260506195129 27 225 3.2 9.7 0.00 0.00 0.00 46 1014.5
20260506194628 27 338 1.6 8.0 0.00 0.00 0.00 45 1014.5
20260506194128 25 225 4.8 11.3 0.00 0.00 0.00 50 1014.5
20260506193629 25 338 6.4 11.3 0.00 0.00 0.00 50 1014.5
20260506193120 26 270 4.8 11.3 0.00 0.00 0.00 46 1014.5
20260506192117 27 293 3.2 8.0 0.00 0.00 0.00 45 1014.9
20260506191615 26 113 3.2 8.0 0.00 0.00 0.00 48 1014.9
20260506191116 26 270 3.2 6.4 0.00 0.00 0.00 49 1015.2
20260506190618 26 180 3.2 6.4 0.00 0.00 0.00 50 1015.2
20260506190117 25 135 3.2 8.0 0.00 0.00 0.00 50 1014.9
20260506185610 25 180 3.2 8.0 0.00 0.00 0.00 50 1015.2
20260506185105 26 225 1.6 6.4 0.00 0.00 0.00 49 1014.9
20260506184604 25 293 3.2 6.4 0.00 0.00 0.00 50 1015.2
20260506184104 25 315 3.2 6.4 0.00 0.00 0.00 51 1015.2
20260506183604 24 270 3.2 6.4 0.00 0.00 0.00 53 1015.2
20260506183104 24 293 3.2 6.4 0.00 0.00 0.00 54 1015.2
20260506182058 23 203 3.2 6.4 0.00 0.00 0.00 53 1015.2
20260506180558 22 315 4.8 9.7 0.00 0.00 0.00 56 1015.6
20260506175559 22 270 3.2 6.4 0.00 0.00 0.00 56 1015.2
20260506175057 23 270 3.2 6.4 0.00 0.00 0.00 55 1015.2
20260506174556 23 270 1.6 8.0 0.00 0.00 0.00 55 1015.6
20260506173558 22 68 1.6 6.4 0.00 0.00 0.00 56 1015.2
20260506173057 21 0 3.2 4.8 0.00 0.00 0.00 60 1015.2
20260506172553 21 315 3.2 4.8 0.00 0.00 0.00 61 1015.6
20260506172050 21 315 1.6 9.7 0.00 0.00 0.00 63 1015.6
20260506171545 20 270 4.8 9.7 0.00 0.00 0.00 63 1015.6
20260506171047 20 338 3.2 6.4 0.00 0.00 0.00 65 1015.6
20260506170038 19 270 3.2 6.4 0.00 0.00 0.00 68 1015.6
20260506165037 18 203 1.6 3.2 0.00 0.00 0.00 69 1015.6
20260506164539 18 338 0.0 3.2 0.00 0.00 0.00 70 1015.6
20260506163534 18 270 0.0 3.2 0.00 0.00 0.00 73 1015.6
20260506163027 17 293 1.6 4.8 0.00 0.00 0.00 74 1015.6
20260506162525 17 248 1.6 4.8 0.00 0.00 0.00 74 1015.6
20260506161520 17 315 1.6 4.8 0.00 0.00 0.00 74 1015.6
20260506161020 17 180 1.6 4.8 0.00 0.00 0.00 75 1015.6
20260506160519 17 293 0.0 3.2 0.00 0.00 0.00 74 1015.6
20260506160021 17 338 1.6 4.8 0.00 0.00 0.00 73 1015.6
20260506155521 17 270 3.2 4.8 0.00 0.00 0.00 71 1015.6
20260506155020 17 270 1.6 4.8 0.00 0.00 0.00 74 1015.6
20260506154520 17 270 1.6 8.0 0.00 0.00 0.00 75 1015.6
20260506154020 17 293 4.8 8.0 0.00 0.00 0.00 74 1015.6
20260506153512 17 315 1.6 3.2 0.00 0.00 0.00 74 1015.6
20260506152512 16 270 0.0 8.0 0.00 0.00 0.00 78 1015.6
20260506152001 16 293 1.6 8.0 0.00 0.00 0.00 78 1015.6
20260506151454 16 270 1.6 4.8 0.00 0.00 0.00 80 1015.6
20260506150956 15 270 1.6 8.0 0.00 0.00 0.00 81 1015.6
20260506145951 15 293 3.2 4.8 0.00 0.00 0.00 81 1015.6
20260506145451 15 270 0.0 4.8 0.00 0.00 0.00 81 1015.6
20260506144944 15 293 0.0 3.2 0.00 0.00 0.00 83 1015.6
20260506143927 14 293 3.2 4.8 0.00 0.00 0.00 83 1015.6
20260506143429 14 270 0.0 3.2 0.00 0.00 0.00 83 1015.6
20260506141923 14 270 0.0 1.6 0.00 0.00 0.00 86 1015.6
20260506141423 14 293 0.0 0.0 0.00 0.00 0.00 86 1015.6
20260506140922 13 270 0.0 1.6 0.00 0.00 0.00 86 1015.6
20260506140427 13 270 0.0 1.6 0.00 0.00 0.00 86 1015.6
20260506135924 13 270 0.0 0.0 0.00 0.00 0.00 86 1015.2
20260506135424 13 270 0.0 0.0 0.00 0.00 0.00 88 1015.2
20260506133918 13 270 0.0 0.0 0.00 0.00 0.00 88 1014.9
20260506133407 13 270 0.0 3.2 0.00 0.00 0.00 88 1014.9
20260506132906 13 270 0.0 3.2 0.00 0.00 0.00 86 1014.9
20260506131904 13 270 0.0 0.0 0.00 0.00 0.00 86 1014.9
20260506131404 13 270 0.0 0.0 0.00 0.00 0.00 86 1014.9
20260506130904 13 270 0.0 0.0 0.00 0.00 0.00 86 1014.5
20260506130405 13 270 0.0 1.6 0.00 0.00 0.00 88 1014.9
20260506125906 13 270 0.0 1.6 0.00 0.00 0.00 88 1014.5
20260506125404 13 293 0.0 1.6 0.00 0.00 0.00 88 1014.5
20260506124903 13 270 0.0 4.8 0.00 0.00 0.00 88 1014.5
20260506124403 13 180 1.6 4.8 0.00 0.00 0.00 88 1014.5
20260506123906 13 270 0.0 3.2 0.00 0.00 0.00 88 1014.5
20260506123402 13 270 1.6 4.8 0.00 0.00 0.00 88 1014.5
20260506122858 13 315 1.6 4.8 0.00 0.00 0.00 88 1014.5
20260506122357 13 270 0.0 3.2 0.00 0.00 0.00 88 1014.5
20260506121852 13 270 0.0 4.8 0.00 0.00 0.00 88 1014.5
20260506121353 13 293 1.6 4.8 0.00 0.00 0.00 88 1014.5
20260506120826 13 270 0.0 3.2 0.00 0.00 0.00 88 1014.5
20260506120326 13 270 3.2 3.2 0.00 0.00 0.00 88 1014.2
20260506115827 13 270 1.6 3.2 0.00 0.00 0.00 88 1014.2
20260506115324 13 270 0.0 3.2 0.00 0.00 0.00 86 1014.2
20260506114814 13 293 0.0 0.0 0.00 0.00 0.00 86 1014.2
20260506114313 13 293 0.0 1.6 0.00 0.00 0.00 86 1014.2
20260506113814 13 270 0.0 3.2 0.00 0.00 0.00 86 1014.2
20260506113312 13 270 0.0 3.2 0.00 0.00 0.00 86 1014.2
20260506112808 13 270 0.0 3.2 0.00 0.00 0.00 86 1014.2
20260506111809 13 270 1.6 3.2 0.00 0.00 0.00 86 1014.2
20260506111308 13 270 0.0 1.6 0.00 0.00 0.00 86 1013.9
20260506110808 13 293 0.0 1.6 0.00 0.00 0.00 86 1014.2
20260506110308 13 338 0.0 1.6 0.00 0.00 0.00 86 1014.2
20260506105807 13 293 0.0 0.0 0.00 0.00 0.00 86 1014.2
20260506105307 13 270 0.0 0.0 0.00 0.00 0.00 86 1013.9
20260506104807 13 270 0.0 0.0 0.00 0.00 0.00 86 1013.9
20260506103811 13 270 0.0 0.0 0.00 0.00 0.00 86 1013.9
20260506102807 13 293 0.0 0.0 0.00 0.00 0.00 86 1013.9
20260506102309 13 270 0.0 0.0 0.00 0.00 0.00 86 1014.2
20260506101808 13 225 0.0 0.0 0.00 0.00 0.00 86 1013.9
20260506101309 13 270 0.0 0.0 0.00 0.00 0.00 86 1013.9
20260506100808 13 270 0.0 1.6 0.00 0.00 0.00 86 1013.9
20260506100306 13 248 0.0 1.6 0.00 0.00 0.00 86 1013.9
20260506095808 13 270 0.0 1.6 0.00 0.00 0.00 86 1013.9
20260506095309 13 270 0.0 1.6 0.00 0.00 0.00 86 1013.9
20260506094807 13 270 0.0 0.0 0.00 0.00 0.00 86 1013.9
20260506094310 13 270 0.0 0.0 0.00 0.00 0.00 86 1013.9
20260506093807 13 270 0.0 0.0 0.00 0.00 0.00 86 1013.9
20260506093307 13 293 0.0 0.0 0.00 0.00 0.00 86 1013.9
20260506092807 13 270 0.0 4.8 0.00 0.00 0.00 86 1014.2
20260506092309 13 270 1.6 4.8 0.00 0.00 0.00 86 1014.2
20260506091809 13 293 0.0 3.2 0.00 0.00 0.00 86 1013.9
20260506091309 13 270 0.0 0.0 0.00 0.00 0.00 86 1013.9
20260506090810 13 270 0.0 0.0 0.00 0.00 0.00 86 1013.9
20260506090308 13 270 0.0 1.6 0.00 0.00 0.00 86 1013.9
20260506085807 13 338 0.0 1.6 0.00 0.00 0.00 86 1013.9
20260506085307 13 270 0.0 0.0 0.00 0.00 0.00 86 1013.9
20260506084307 13 270 0.0 3.2 0.00 0.00 0.00 86 1013.9
20260506083800 13 270 0.0 3.2 0.00 0.00 0.00 86 1013.9
20260506083259 13 293 0.0 3.2 0.00 0.00 0.00 86 1013.9
20260506082757 13 270 0.0 3.2 0.00 0.00 0.00 85 1013.9
20260506082253 13 270 0.0 3.2 0.00 0.00 0.00 85 1013.9
20260506081254 13 270 0.0 3.2 0.00 0.00 0.00 85 1013.9
20260506080248 14 248 1.6 4.8 0.00 0.00 0.00 85 1013.9
20260506072247 14 270 3.2 4.8 0.00 0.00 0.00 83 1013.5
20260506071748 14 270 3.2 4.8 0.00 0.00 0.00 83 1013.5
20260506070328 14 270 1.6 6.4 0.00 0.00 0.00 83 1013.5
20260506061822 14 270 1.6 4.8 0.00 0.00 0.00 81 1013.2
20260506061313 14 270 3.2 4.8 0.00 0.00 0.00 81 1013.2
20260506060812 14 270 3.2 4.8 0.00 0.00 0.00 81 1013.2
20260506060315 14 270 0.0 3.2 0.00 0.00 0.00 80 1012.8